1497063600.86,65057,19.44,74096.0,1.65,-27.67,-27.99,0,*7F
1497063602.08,65058,19.44,74098.5,1.65,-27.77,-28.09,0,*77
1497063603.3,65059,19.44,74094.3,1.65,-27.77,-28.09,0,*76
1497063604.5,65060,19.44,74098.3,1.65,-27.77,-28.15,0,*71
1497063605.73,65061,19.44,74094.5,1.61,-27.89,-28.21,0,*72
1497063606.93,65062,19.44,74096.8,1.65,-27.93,-28.15,0,*79
1497063608.19,65063,19.44,74096.5,1.65,-27.61,-28.09,0,*78
1497063609.41,65064,19.44,74094.8,1.65,-27.67,-28.09,0,*79
1497063610.63,65065,19.44,74096.5,1.65,-27.67,-28.09,0,*78
1497063611.86,65066,19.44,74098.8,1.61,-27.77,-28.09,0,*7E
1497063613.11,65067,19.44,74098.8,1.67,-27.77,-28.09,0,*79
1497063614.36,65068,19.44,74094.8,1.67,-27.67,-28.09,0,*77
1497063615.58,65069,19.44,74092.0,1.65,-27.83,-28.15,0,*73
1497063616.8,65070,19.44,74096.3,1.65,-27.83,-28.15,0,*7B
1497063618.02,65071,19.44,74094.3,1.65,-27.83,-28.15,0,*7A
1497063619.24,65072,19.44,74098.3,1.65,-27.77,-28.09,0,*7F
1497063620.44,65073,19.44,74096.5,1.65,-27.77,-28.15,0,*73
1497063621.69,65074,19.44,74094.0,1.61,-27.83,-28.21,0,*7C
1497063622.94,65075,19.44,74096.5,1.61,-27.83,-28.21,0,*7D
1497063624.16,65076,19.44,74096.0,1.65,-27.83,-28.15,0,*7D
1497063625.39,65077,19.44,74098.0,1.65,-27.93,-28.25,0,*7E
1497063626.61,65078,19.44,74098.5,1.65,-27.67,-28.09,0,*74
1497063627.86,65079,19.44,74092.8,1.61,-27.83,-28.21,0,*71
1497063629.09,65080,19.44,74094.8,1.61,-27.77,-28.09,0,*76
1497063630.34,65081,19.44,74096.5,1.61,-27.83,-28.21,0,*76
1497063631.56,65082,19.44,74094.0,1.65,-27.83,-28.15,0,*76
1497063632.76,65083,19.44,74094.3,1.65,-27.77,-28.15,0,*7C
1497063633.99,65084,19.44,74098.3,1.61,-27.89,-28.21,0,*79
1497063635.19,65085,19.44,74096.8,1.65,-27.77,-28.15,0,*7A
1497063636.41,65086,19.44,74096.3,1.65,-27.83,-28.15,0,*72
1497063637.64,65087,19.44,74096.5,1.65,-27.77,-28.25,0,*7B
1497063638.86,65088,19.44,74096.0,1.65,-27.93,-28.25,0,*7E
1497063640.09,65089,19.44,74094.3,1.61,-27.99,-28.31,0,*74
1497063641.32,65090,19.44,74094.3,1.61,-27.99,-28.31,0,*7C
1497063642.55,65091,19.44,74096.5,1.61,-27.89,-28.21,0,*7D
1497063643.81,65092,19.44,74092.5,1.61,-27.99,-28.21,0,*7F
1497063645.01,65093,19.44,74092.8,1.65,-27.77,-28.15,0,*7D
1497063646.24,65094,19.44,74096.0,1.61,-27.71,-28.21,0,*7F
1497063647.44,65095,19.44,74096.0,1.61,-27.77,-28.15,0,*7F
1497063648.65,65096,19.44,74094.3,1.61,-27.67,-28.15,0,*7D
1497063649.88,65097,19.44,74098.8,1.61,-27.71,-28.21,0,*7C
1497063651.11,65098,19.44,74096.5,1.61,-27.83,-28.15,0,*79
1497063652.34,65099,19.44,74096.5,1.61,-27.83,-28.15,0,*78
1497063653.57,65100,19.44,74096.5,1.61,-27.89,-28.21,0,*74
1497063654.82,65101,19.44,74096.5,1.61,-27.83,-28.21,0,*7F
1497063656.02,65102,19.44,74096.0,1.61,-27.89,-28.15,0,*71
1497063657.28,65103,19.44,74096.5,1.59,-27.89,-28.25,0,*78
1497063658.54,65104,19.44,74098.3,1.59,-27.93,-28.25,0,*74
1497063659.77,65105,19.44,74094.8,1.61,-27.89,-28.21,0,*71
1497063661.02,65106,19.44,74098.8,1.61,-27.99,-28.21,0,*73
1497063662.28,65107,19.44,74096.3,1.61,-27.99,-28.21,0,*72
1497063663.5,65108,19.44,74096.8,1.61,-27.89,-28.21,0,*7C
1497063664.73,65109,19.44,74100.0,1.61,-27.89,-28.21,0,*7D
1497063665.99,65110,19.44,74094.3,1.61,-27.83,-28.21,0,*7F
1497063667.24,65111,19.44,74096.5,1.59,-27.89,-28.21,0,*7F
1497063668.5,65112,19.44,74098.0,1.59,-27.93,-28.25,0,*73
1497063669.75,65113,19.44,74098.0,1.59,-27.89,-28.25,0,*79
1497063671.01,65114,19.44,74096.3,1.59,-27.89,-28.25,0,*7E
1497063672.26,65115,19.44,74096.0,1.59,-27.89,-28.21,0,*7B
1497063673.52,65116,19.44,74092.8,1.59,-27.77,-28.25,0,*7D
1497063674.78,65117,19.44,74096.8,1.59,-27.77,-28.09,0,*72
1497063676.03,65118,19.44,74094.5,1.59,-27.89,-28.25,0,*72
1497063677.26,65119,19.44,74096.3,1.57,-27.89,-28.25,0,*7D
1497063678.51,65120,19.44,74096.8,1.59,-27.93,-28.25,0,*72
1497063679.74,65121,19.44,74096.5,1.57,-27.89,-28.25,0,*76
1497063680.97,65122,19.44,74092.0,1.57,-27.77,-28.25,0,*74
1497063682.22,65123,19.44,74096.8,1.59,-27.77,-28.21,0,*7F
1497063683.48,65124,19.44,74096.3,1.59,-27.77,-28.21,0,*78
1497063684.74,65125,19.44,74096.0,1.59,-27.93,-28.25,0,*77
1497063685.99,65126,19.44,74098.0,1.59,-27.89,-28.21,0,*7B
1497063687.22,65127,19.44,74092.0,1.57,-27.89,-28.25,0,*70
1497063688.48,65128,19.44,74096.0,1.59,-27.93,-28.21,0,*7E
1497063689.73,65129,19.44,74096.5,1.59,-27.89,-28.21,0,*74
1497063690.96,65130,19.44,74096.0,1.57,-27.93,-28.43,0,*7D
1497063692.18,65131,19.44,74096.8,1.57,-27.93,-28.25,0,*7C
1497063693.41,65132,19.44,74098.3,1.57,-27.93,-28.25,0,*7F
1497063694.64,65133,19.44,74092.8,1.57,-27.89,-28.21,0,*71
1497063695.86,65134,19.44,74096.3,1.57,-27.89,-28.21,0,*76
1497063697.12,65135,19.44,74098.5,1.59,-27.77,-28.21,0,*78
1497063698.38,65136,19.44,74098.8,1.59,-27.77,-28.21,0,*7B
1497063699.64,65137,19.44,74094.5,1.59,-27.89,-28.21,0,*7B
1497063700.89,65138,19.44,74096.0,1.59,-27.71,-28.09,0,*79
1497063702.14,65139,19.44,74092.8,1.59,-27.77,-28.09,0,*7E
1497063703.37,65140,19.44,74096.5,1.57,-27.77,-28.21,0,*74
1497063704.6,65141,19.44,74098.3,1.57,-27.71,-28.21,0,*73
1497063705.82,65142,19.44,74096.0,1.57,-27.89,-28.09,0,*7D
1497063707.07,65143,19.44,74098.8,1.59,-27.89,-28.09,0,*72
1497063708.3,65144,19.44,74096.3,1.57,-27.89,-28.21,0,*71
1497063709.55,65145,19.44,74096.5,1.59,-27.77,-28.09,0,*75
1497063710.78,65146,19.44,74094.5,1.57,-27.71,-28.05,0,*72
1497063712.01,65147,19.44,74098.3,1.57,-27.77,-28.21,0,*73
1497063713.23,65148,19.44,74096.8,1.57,-27.89,-28.21,0,*7D
1497063714.46,65149,19.44,74094.8,1.57,-27.77,-28.21,0,*7D
1497063715.72,65150,19.44,74094.5,1.59,-27.77,-28.21,0,*7B
1497063716.94,65151,19.44,74096.8,1.57,-27.77,-28.09,0,*7E
1497063718.17,65152,19.44,74094.5,1.57,-27.77,-28.09,0,*7D
1497063719.42,65153,19.44,74092.3,1.59,-27.89,-28.25,0,*7D
1497063720.68,65154,19.44,74094.5,1.59,-27.77,-28.21,0,*7F
1497063721.91,65155,19.44,74094.3,1.57,-27.71,-28.21,0,*76
1497063723.13,65156,19.44,74094.3,1.57,-27.77,-28.09,0,*79
1497063724.39,65157,19.44,74098.0,1.59,-27.93,-28.21,0,*76
1497063725.62,65158,19.38,74094.3,1.57,-27.77,-28.21,0,*7D
1497063726.87,65159,19.44,74096.5,1.59,-27.77,-28.05,0,*74
1497063728.1,65160,19.44,74098.3,1.57,-27.77,-28.21,0,*76
1497063729.33,65161,19.44,74094.8,1.57,-27.77,-28.21,0,*77
1497063730.56,65162,19.44,74096.5,1.57,-27.77,-28.21,0,*74
1497063731.78,65163,19.44,74096.0,1.57,-27.89,-28.21,0,*74
1497063733.01,65164,19.44,74096.8,1.57,-27.77,-28.21,0,*72
1497063734.25,65165,19.44,74096.5,1.55,-27.77,-28.15,0,*76
1497063735.47,65166,19.44,74098.3,1.57,-27.77,-28.09,0,*7A
1497063736.69,65167,19.44,74094.3,1.57,-27.71,-28.09,0,*7D
1497063737.92,65168,19.44,74098.5,1.57,-27.71,-28.05,0,*7E
1497063739.15,65169,19.44,74096.3,1.57,-27.71,-28.21,0,*79
1497063740.37,65170,19.44,74092.8,1.57,-27.71,-28.05,0,*77
1497063741.63,65171,19.44,74100.3,1.59,-27.77,-28.21,0,*78
1497063742.86,65172,19.44,74098.8,1.57,-27.77,-28.25,0,*71
1497063744.08,65173,19.44,74098.5,1.57,-27.77,-28.09,0,*7E
1497063745.31,65174,19.44,74096.0,1.57,-27.71,-28.21,0,*75
1497063746.54,65175,19.44,74096.0,1.57,-27.77,-28.21,0,*72
1497063747.76,65176,19.44,74096.0,1.57,-27.77,-28.09,0,*7B
1497063748.99,65177,19.44,74098.3,1.57,-27.71,-28.05,0,*70
1497063750.21,65178,19.44,74094.3,1.57,-27.71,-28.09,0,*73
1497063751.44,65179,19.44,74098.5,1.57,-27.77,-28.09,0,*74
1497063752.7,65180,19.38,74094.3,1.59,-27.77,-28.21,0,*76
1497063753.93,65181,19.44,74098.5,1.53,-27.93,-28.25,0,*73
1497063755.15,65182,19.44,74094.5,1.57,-27.77,-28.25,0,*7E
1497063756.38,65183,19.44,74092.3,1.57,-27.77,-28.09,0,*71
1497063757.64,65184,19.44,74096.5,1.55,-27.93,-28.25,0,*70
1497063758.87,65185,19.44,74096.3,1.55,-27.93,-28.31,0,*74
1497063760.1,65186,19.44,74098.0,1.57,-27.89,-28.21,0,*7F
1497063761.36,65187,19.44,74092.5,1.55,-27.99,-28.31,0,*7C
1497063762.58,65188,19.44,74096.8,1.57,-27.89,-28.25,0,*75
1497063763.81,65189,19.44,74092.8,1.57,-27.89,-28.21,0,*70
1497063765.03,65190,19.44,74092.3,1.57,-27.93,-28.25,0,*77
1497063766.29,65191,19.44,74094.8,1.55,-27.99,-28.31,0,*7B
1497063767.55,65192,19.44,74096.3,1.55,-27.93,-28.43,0,*77
1497063768.82,65193,19.44,74096.0,1.55,-27.99,-28.43,0,*7C
1497063770.08,65194,19.44,74096.8,1.55,-27.93,-28.25,0,*71
1497063771.32,65195,19.44,74092.0,1.55,-27.93,-28.31,0,*75
1497063772.54,65196,19.44,74096.3,1.53,-27.83,-28.15,0,*77
1497063773.78,65197,19.44,74098.3,1.55,-27.93,-28.31,0,*77
1497063775.04,65198,19.44,74094.3,1.55,-27.77,-28.25,0,*77
1497063776.31,65199,19.44,74092.5,1.55,-27.83,-28.25,0,*7D
1497063777.55,65200,19.44,74096.3,1.55,-27.93,-28.15,0,*7C
1497063778.78,65201,19.44,74100.0,1.53,-27.93,-28.09,0,*76
1497063780.03,65202,19.44,74096.8,1.55,-27.83,-28.15,0,*7F
1497063781.26,65203,19.44,74096.8,1.53,-27.83,-28.15,0,*78
1497063782.51,65204,19.44,74096.0,1.55,-27.83,-28.15,0,*79
1497063783.75,65205,19.44,74096.8,1.55,-27.77,-28.15,0,*73
1497063785.0,65206,19.44,74096.0,1.55,-27.77,-28.25,0,*73
1497063786.24,65207,19.44,74096.8,1.55,-27.93,-28.31,0,*7D
1497063787.47,65208,19.44,74092.8,1.53,-27.93,-28.25,0,*71
1497063788.72,65209,19.44,74096.3,1.55,-27.83,-28.31,0,*72
1497063789.96,65210,19.44,74096.3,1.53,-27.93,-28.25,0,*78
1497063791.21,65211,19.44,74094.3,1.55,-27.99,-28.31,0,*70
1497063792.47,65212,19.44,74094.3,1.55,-27.99,-28.31,0,*73
1497063793.72,65213,19.44,74096.5,1.51,-27.99,-28.37,0,*70
1497063794.93,65214,19.44,74096.8,1.53,-27.93,-28.31,0,*79
1497063796.18,65215,19.44,74096.0,1.53,-27.83,-28.25,0,*7C
1497063797.44,65216,19.44,74096.8,1.51,-27.83,-28.31,0,*78
1497063798.69,65217,19.44,74094.3,1.51,-27.99,-28.37,0,*74
1497063799.95,65218,19.44,74096.3,1.51,-27.99,-28.31,0,*7D
1497063801.18,65219,19.44,74094.3,1.53,-27.93,-28.25,0,*71
1497063802.44,65220,19.44,74094.3,1.53,-27.99,-28.25,0,*71
1497063803.66,65221,19.44,74094.5,1.53,-27.93,-28.25,0,*7A
1497063804.89,65222,19.44,74092.0,1.53,-27.77,-28.09,0,*7D
1497063806.12,65223,19.44,74096.8,1.51,-27.89,-28.37,0,*72
1497063807.37,65224,19.44,74094.5,1.53,-27.83,-28.25,0,*7E
1497063808.6,65225,19.44,74092.8,1.51,-27.89,-28.31,0,*72
1497063809.83,65226,19.44,74098.3,1.51,-27.89,-28.15,0,*77
1497063811.09,65227,19.44,74096.0,1.53,-27.83,-28.25,0,*7D
1497063812.31,65228,19.44,74096.5,1.53,-27.83,-28.31,0,*77
1497063813.54,65229,19.44,74098.3,1.51,-27.89,-28.37,0,*78
1497063814.8,65230,19.44,74094.5,1.51,-28.05,-28.37,0,*7B
1497063816.05,65231,19.44,74094.5,1.51,-27.99,-28.31,0,*76
1497063817.31,65232,19.44,74094.8,1.51,-27.89,-28.21,0,*75
1497063818.54,65233,19.44,74096.0,1.51,-27.89,-28.31,0,*75
1497063819.8,65234,19.44,74094.8,1.51,-27.99,-28.31,0,*73
1497063821.03,65235,19.44,74092.5,1.49,-27.93,-28.25,0,*74
1497063822.23,65236,19.44,74096.0,1.49,-27.93,-28.37,0,*74
1497063823.49,65237,19.44,74094.3,1.51,-27.89,-28.21,0,*70
1497063824.74,65238,19.44,74092.8,1.51,-27.89,-28.21,0,*7F
1497063825.94,65239,19.44,74096.0,1.49,-27.89,-28.37,0,*70
1497063827.18,65240,19.44,74094.5,1.51,-27.89,-28.31,0,*71
1497063828.38,65241,19.44,74096.3,1.49,-27.89,-28.37,0,*7F
1497063829.63,65242,19.44,74096.0,1.51,-27.83,-28.31,0,*79
1497063830.89,65243,19.44,74092.8,1.51,-27.89,-28.25,0,*77
1497063832.14,65244,19.44,74094.0,1.49,-28.05,-28.25,0,*72
1497063833.37,65245,19.44,74096.8,1.49,-27.89,-28.21,0,*7C
1497063834.58,65246,19.44,74098.3,1.49,-27.93,-28.37,0,*73
1497063835.78,65247,19.44,74098.5,1.49,-27.89,-28.37,0,*79
1497063837.03,65248,19.44,74098.8,1.51,-27.99,-28.31,0,*78
1497063838.26,65249,19.44,74098.0,1.49,-27.93,-28.43,0,*7F
1497063839.46,65250,19.44,74098.5,1.49,-27.93,-28.37,0,*74
1497063840.69,65251,19.44,74092.8,1.49,-28.05,-28.37,0,*75
1497063841.89,65252,19.44,74096.0,1.49,-27.93,-28.37,0,*76
1497063843.1,65253,19.44,74096.3,1.49,-27.93,-28.37,0,*77
1497063844.32,65254,19.44,74098.8,1.49,-27.89,-28.25,0,*78
1497063845.55,65255,19.44,74096.8,1.49,-27.93,-28.25,0,*72
1497063846.76,65256,19.44,74096.0,1.49,-27.93,-28.37,0,*72
1497063848.02,65257,19.38,74092.5,1.49,-28.05,-28.25,0,*70
1497063849.24,65258,19.44,74096.5,1.49,-27.89,-28.21,0,*70
1497063850.47,65259,19.44,74092.3,1.49,-27.77,-28.25,0,*74
1497063851.7,65260,19.44,74096.3,1.49,-27.89,-28.21,0,*7B
1497063852.96,65261,19.44,74094.5,1.47,-27.89,-28.21,0,*74
1497063854.19,65262,19.44,74096.0,1.49,-27.89,-28.21,0,*79
1497063855.47,65263,19.44,74094.3,1.51,-27.83,-28.05,0,*7D
1497063856.7,65264,19.44,74098.3,1.49,-27.77,-28.25,0,*7A
1497063857.93,65265,19.38,74092.0,1.49,-27.93,-28.21,0,*75
1497063859.16,65266,19.44,74100.0,1.49,-27.93,-28.25,0,*72
1497063860.36,65267,19.44,74094.5,1.49,-27.93,-28.37,0,*70
1497063861.62,65268,19.44,74096.3,1.47,-27.89,-28.09,0,*77
1497063862.85,65269,19.44,74096.3,1.45,-27.93,-28.25,0,*71
1497063864.06,65270,19.44,74096.3,1.45,-27.93,-28.31,0,*7C
1497063865.32,65271,19.44,74094.3,1.47,-27.89,-28.25,0,*71
1497063866.58,65272,19.44,74098.3,1.47,-27.89,-28.21,0,*76
1497063867.83,65273,19.44,74096.0,1.47,-27.89,-28.21,0,*77
1497063869.09,65274,19.44,74096.8,1.47,-27.89,-28.09,0,*7A
1497063870.34,65275,19.44,74096.3,1.47,-27.89,-28.09,0,*7B
1497063871.6,65276,19.44,74096.0,1.47,-27.93,-28.25,0,*7D
1497063872.83,65277,19.44,74098.3,1.47,-27.93,-28.37,0,*7F
1497063874.04,65278,19.44,74098.3,1.45,-27.93,-28.31,0,*74
1497063875.27,65279,19.44,74096.0,1.45,-27.99,-28.31,0,*7F
1497063876.5,65280,19.44,74098.5,1.45,-27.89,-28.09,0,*73
1497063877.73,65281,19.44,74094.5,1.45,-27.93,-28.09,0,*79
1497063878.99,65282,19.44,74098.5,1.47,-27.89,-28.21,0,*79
1497063880.2,65283,19.44,74098.8,1.45,-27.93,-28.31,0,*70
1497063881.44,65284,19.44,74098.5,1.45,-27.93,-28.25,0,*72
1497063882.69,65285,19.44,74096.3,1.47,-27.89,-28.25,0,*7A
1497063883.95,65286,19.38,74094.5,1.45,-27.99,-28.25,0,*7A
1497063885.21,65287,19.44,74094.3,1.47,-27.93,-28.05,0,*71
1497063886.44,65288,19.44,74094.3,1.45,-27.93,-28.25,0,*7E
1497063887.65,65289,19.44,74096.0,1.45,-27.93,-28.31,0,*7A
1497063888.89,65290,19.38,74092.5,1.45,-27.93,-28.09,0,*79
1497063890.1,65291,19.44,74092.0,1.45,-27.93,-28.15,0,*75
1497063891.35,65292,19.44,74096.0,1.45,-27.99,-28.25,0,*7F
1497063892.61,65293,19.44,74098.5,1.47,-27.89,-28.21,0,*79
1497063893.87,65294,19.38,74092.3,1.47,-27.89,-28.21,0,*7E
1497063895.13,65295,19.38,74092.3,1.47,-27.93,-28.25,0,*70
1497063896.38,65296,19.44,74092.8,1.47,-27.93,-28.25,0,*73
1497063897.64,65297,19.44,74096.8,1.47,-27.89,-28.09,0,*77
1497063898.87,65298,19.44,74096.0,1.45,-27.93,-28.25,0,*7F
1497063900.11,65299,19.44,74096.3,1.45,-27.99,-28.31,0,*71
1497063901.32,65300,19.44,74094.5,1.45,-27.93,-28.15,0,*7C
1497063902.55,65301,19.44,74098.3,1.45,-27.83,-28.15,0,*7C
1497063903.78,65302,19.38,74092.0,1.45,-27.83,-28.15,0,*7F
1497063905.01,65303,19.44,74092.8,1.45,-27.93,-28.25,0,*7C
1497063906.25,65304,19.44,74096.5,1.45,-27.93,-28.25,0,*7B
1497063907.48,65305,19.44,74098.0,1.45,-27.93,-28.25,0,*7A
1497063908.74,65306,19.44,74092.0,1.47,-27.89,-28.21,0,*74
1497063909.97,65307,19.44,74098.3,1.45,-27.93,-28.25,0,*78
1497063911.18,65308,19.38,74094.8,1.45,-27.93,-28.31,0,*72
1497063912.42,65309,19.44,74094.8,1.39,-27.99,-28.31,0,*72
1497063913.67,65310,19.44,74098.0,1.43,-27.93,-28.09,0,*76
1497063914.93,65311,19.44,74098.3,1.43,-27.93,-28.25,0,*79
1497063916.19,65312,19.44,74094.5,1.43,-27.93,-28.25,0,*7A
1497063917.45,65313,19.44,74098.5,1.43,-27.93,-28.25,0,*7B
1497063918.71,65314,19.44,74096.0,1.39,-27.99,-28.21,0,*7F
1497063919.92,65315,19.38,74094.3,1.45,-27.93,-28.15,0,*78
1497063921.15,65316,19.44,74096.3,1.43,-27.93,-28.15,0,*7D
1497063922.41,65317,19.44,74098.5,1.43,-27.93,-28.25,0,*7F
1497063923.67,65318,19.44,74096.0,1.43,-27.93,-28.25,0,*70
1497063924.9,65319,19.44,74096.8,1.45,-27.93,-28.25,0,*77
1497063926.13,65320,19.44,74096.0,1.45,-27.93,-28.25,0,*7D
1497063927.41,65321,19.44,74098.5,1.43,-27.83,-28.25,0,*7B
1497063928.69,65322,19.44,74094.3,1.43,-27.83,-28.09,0,*76
1497063929.96,65323,19.44,74098.3,1.43,-27.83,-28.09,0,*77
1497063931.17,65324,19.44,74094.3,1.39,-27.89,-28.31,0,*7C
1497063932.4,65325,19.44,74094.3,1.43,-27.93,-28.15,0,*7D
1497063933.66,65326,19.44,74098.3,1.43,-27.93,-28.09,0,*73
1497063934.89,65327,19.44,74096.5,1.43,-27.93,-28.15,0,*7F
1497063936.17,65328,19.38,74092.3,1.43,-27.83,-28.09,0,*7C
1497063937.43,65329,19.38,74092.0,1.39,-27.99,-28.21,0,*71
1497063938.66,65330,19.44,74096.8,1.43,-27.93,-28.15,0,*79
1497063939.9,65331,19.44,74098.3,1.39,-28.05,-28.15,0,*75
1497063941.13,65332,19.44,74098.3,1.43,-27.93,-28.15,0,*7B
1497063942.39,65333,19.44,74096.8,1.39,-27.99,-28.21,0,*7A
1497063943.65,65334,19.44,74096.0,1.39,-27.99,-28.21,0,*7D
1497063944.88,65335,19.44,74098.8,1.39,-27.99,-28.15,0,*7B
1497063946.11,65336,19.38,74092.3,1.39,-27.89,-28.21,0,*7E
1497063947.37,65337,19.38,74092.3,1.43,-27.83,-28.15,0,*7F
1497063948.64,65338,19.44,74094.5,1.43,-27.83,-28.09,0,*7D
1497063949.9,65339,19.44,74096.3,1.43,-27.83,-28.15,0,*71
1497063951.13,65340,19.44,74096.8,1.39,-27.89,-28.21,0,*7F
1497063952.36,65341,19.44,74096.8,1.43,-27.93,-28.15,0,*7F
1497063953.6,65342,19.44,74096.0,1.43,-27.93,-28.15,0,*7C
1497063954.85,65343,19.44,74096.5,1.39,-27.83,-28.21,0,*76
1497063956.09,65344,19.38,74092.3,1.39,-27.99,-28.31,0,*7B
1497063957.34,65345,19.44,74096.5,1.43,-27.77,-28.09,0,*7C
1497063958.6,65346,19.44,74096.3,1.39,-27.83,-28.05,0,*75
1497063959.87,65347,19.44,74096.3,1.43,-27.83,-28.09,0,*75
1497063961.08,65348,19.44,74094.5,1.39,-27.89,-28.15,0,*70
1497063962.36,65349,19.44,74098.3,1.43,-27.83,-28.21,0,*71
1497063963.61,65350,19.44,74094.3,1.39,-27.99,-28.21,0,*7F
1497063964.85,65351,19.44,74096.0,1.43,-27.93,-28.15,0,*7E
1497063966.08,65352,19.44,74096.0,1.43,-27.93,-28.15,0,*7D
1497063967.29,65353,19.44,74096.3,1.39,-27.89,-28.15,0,*7A
1497063968.5,65354,19.44,74098.0,1.39,-27.89,-28.15,0,*7D
1497063969.77,65355,19.44,74096.5,1.43,-27.83,-28.09,0,*76
1497063970.98,65356,19.44,74096.0,1.39,-27.89,-28.15,0,*7F
1497063972.21,65357,19.44,74096.3,1.39,-27.89,-28.21,0,*79
1497063973.49,65358,19.38,74092.5,1.43,-27.83,-28.09,0,*7B
1497063974.7,65359,19.44,74096.0,1.39,-27.89,-28.15,0,*70
1497063975.93,65360,19.44,74096.3,1.39,-27.89,-28.21,0,*7D
1497063977.14,65361,19.44,74094.0,1.39,-27.89,-28.15,0,*7B
1497063978.37,65362,19.44,74096.0,1.39,-27.83,-28.15,0,*72
1497063979.58,65363,19.44,74094.5,1.39,-27.89,-28.15,0,*79
1497063980.81,65364,19.44,74096.8,1.39,-27.89,-28.21,0,*79
1497063982.06,65365,19.38,74092.8,1.43,-27.89,-28.09,0,*7F
1497063983.32,65366,19.44,74096.3,1.43,-27.83,-28.15,0,*7B
1497063984.52,65367,19.38,74092.3,1.39,-27.89,-28.15,0,*7D
1497063985.73,65368,19.44,74096.3,1.39,-27.89,-28.15,0,*72
1497063986.97,65369,19.38,74092.3,1.39,-27.99,-28.31,0,*74
1497063988.2,65370,19.44,74094.5,1.39,-27.99,-28.31,0,*7C
1497063989.45,65371,19.44,74098.3,1.39,-27.83,-28.21,0,*77
1497063990.69,65372,19.44,74096.8,1.39,-27.89,-27.99,0,*72
1497063991.92,65373,19.44,74096.3,1.39,-27.83,-28.15,0,*72
1497063993.19,65374,19.44,74096.3,1.43,-27.83,-27.99,0,*73
1497063994.47,65375,19.38,74094.3,1.43,-27.83,-27.99,0,*72
1497063995.7,65376,19.44,74096.8,1.39,-27.89,-28.21,0,*7A
1497063996.91,65377,19.44,74098.3,1.39,-27.89,-28.15,0,*7C
1497063998.15,65378,19.44,74096.8,1.39,-28.05,-28.15,0,*78
1497063999.38,65379,19.44,74098.3,1.39,-27.99,-28.15,0,*73
1497064000.64,65380,19.38,74094.5,1.39,-27.99,-28.21,0,*72
1497064001.87,65381,19.44,74098.5,1.39,-27.89,-28.21,0,*72
1497064003.13,65382,19.44,74096.3,1.43,-27.83,-28.15,0,*71
1497064004.36,65383,19.44,74096.0,1.39,-27.83,-28.15,0,*7D
1497064005.64,65384,19.44,74096.3,1.43,-27.83,-28.21,0,*70
1497064006.84,65385,19.44,74096.5,1.39,-27.89,-28.15,0,*71
1497064008.08,65386,19.44,74096.8,1.39,-27.89,-28.05,0,*73
1497064009.28,65387,19.38,74092.0,1.39,-27.89,-27.93,0,*72
1497064010.51,65388,19.38,74092.5,1.39,-27.89,-28.21,0,*7B
1497064011.72,65389,19.44,74098.5,1.39,-27.89,-28.15,0,*7D
1497064012.97,65390,19.44,74096.8,1.43,-27.93,-28.09,0,*7E
1497064014.2,65391,19.44,74096.3,1.39,-27.89,-27.99,0,*7F
1497064015.43,65392,19.44,74096.5,1.39,-27.83,-28.15,0,*7D
1497064016.66,65393,19.44,74096.5,1.39,-27.83,-28.15,0,*7C
1497064017.89,65394,19.44,74096.3,1.43,-27.77,-27.93,0,*7C
1497064019.1,65395,19.44,74096.3,1.39,-27.89,-28.15,0,*70
1497064020.33,65396,19.44,74098.8,1.39,-27.93,-28.09,0,*75
1497064021.56,65397,19.44,74098.3,1.39,-27.99,-28.15,0,*73
1497064022.8,65398,19.44,74098.3,1.39,-27.99,-28.15,0,*7C
1497064024.07,65399,19.44,74096.0,1.43,-27.83,-28.09,0,*76
1497064025.35,65400,19.44,74096.0,1.43,-27.83,-28.09,0,*71
1497064026.6,65401,19.44,74100.0,1.39,-27.83,-28.05,0,*71
1497064027.86,65402,19.44,74096.0,1.39,-27.83,-28.05,0,*72
1497064029.09,65403,19.38,74094.5,1.39,-27.71,-28.05,0,*7E
1497064030.3,65404,19.44,74096.3,1.39,-27.89,-28.15,0,*7F
1497064031.53,65405,19.44,74096.0,1.39,-27.89,-28.05,0,*7F
1497064032.76,65406,19.44,74098.0,1.39,-27.89,-28.05,0,*7C
1497064033.99,65407,19.44,74096.3,1.39,-27.89,-28.05,0,*7D
1497064035.23,65408,19.44,74094.8,1.39,-27.89,-28.05,0,*72
1497064036.48,65409,19.38,74094.3,1.39,-27.83,-28.05,0,*79
1497064037.74,65410,19.44,74096.0,1.43,-27.77,-27.99,0,*7D
1497064038.96,65411,19.44,74098.0,1.43,-27.77,-27.93,0,*76
1497064040.21,65412,19.38,74092.3,1.39,-27.83,-27.83,0,*72
1497064041.47,65413,19.44,74096.0,1.39,-27.83,-28.05,0,*72
1497064042.72,65414,19.44,74098.5,1.43,-27.83,-27.93,0,*78
1497064043.99,65415,19.38,74096.3,1.43,-27.83,-27.99,0,*73
1497064045.2,65416,19.44,74094.3,1.39,-27.71,-27.93,0,*7A
1497064046.45,65417,19.44,74092.8,1.43,-27.67,-27.83,0,*70
1497064047.71,65418,19.44,74096.0,1.43,-27.67,-27.83,0,*7F
1497064048.96,65419,19.44,74096.8,1.39,-27.83,-28.05,0,*78
1497064050.24,65420,19.38,74092.8,1.43,-27.83,-28.09,0,*73
1497064051.51,65421,19.44,74094.8,1.43,-27.83,-28.09,0,*72
1497064052.76,65422,19.44,74096.0,1.39,-27.83,-27.99,0,*7A
1497064053.99,65423,19.44,74098.5,1.43,-27.77,-27.93,0,*77
1497064055.22,65424,19.44,74100.3,1.39,-27.77,-27.83,0,*7C
1497064056.43,65425,19.38,74096.0,1.39,-27.71,-27.89,0,*71
1497064057.71,65426,19.44,74098.5,1.43,-27.61,-27.83,0,*74
1497064058.92,65427,19.44,74096.8,1.39,-27.71,-27.89,0,*73
1497064060.15,65428,19.44,74098.0,1.43,-27.67,-27.77,0,*77
1497064061.41,65429,19.38,74094.0,1.43,-27.77,-27.99,0,*77
1497064062.66,65430,19.44,74098.5,1.39,-27.83,-27.99,0,*79
1497064063.89,65431,19.44,74098.0,1.39,-27.67,-27.83,0,*79
1497064065.1,65432,19.44,74096.3,1.39,-27.89,-28.15,0,*7A
1497064066.38,65433,19.44,74096.3,1.43,-27.83,-27.99,0,*77
1497064067.61,65434,19.44,74096.8,1.39,-27.89,-28.05,0,*7D
1497064068.87,65435,19.44,74094.8,1.43,-27.77,-27.99,0,*7A
1497064070.12,65436,19.38,74094.0,1.39,-27.83,-27.99,0,*7F
1497064071.4,65437,19.44,74096.8,1.43,-27.83,-27.99,0,*73
1497064072.63,65438,19.38,74094.8,1.39,-27.89,-27.99,0,*7B
1497064073.9,65439,19.44,74096.0,1.43,-27.83,-28.09,0,*7B
1497064075.13,65440,19.44,74098.0,1.43,-27.77,-27.93,0,*72
1497064076.38,65441,19.38,74096.3,1.43,-27.83,-27.93,0,*78
1497064077.63,65442,19.44,74098.8,1.39,-27.83,-27.99,0,*7C
1497064078.86,65443,19.44,74098.0,1.39,-27.89,-28.05,0,*7D
1497064080.12,65444,19.44,74098.0,1.43,-27.77,-27.83,0,*77
1497064081.37,65445,19.38,74096.0,1.39,-27.83,-27.99,0,*7B
1497064082.62,65446,19.44,74098.0,1.39,-27.83,-28.05,0,*72
1497064083.9,65447,19.44,74096.8,1.43,-27.83,-27.99,0,*74
1497064085.18,65448,19.44,74098.5,1.43,-27.83,-27.99,0,*7B
1497064086.41,65449,19.44,74096.5,1.43,-27.67,-27.93,0,*7A
1497064087.64,65450,19.44,74094.5,1.43,-27.67,-27.93,0,*72
1497064088.89,65451,19.38,74094.5,1.39,-27.83,-28.05,0,*74
1497064090.12,65452,19.38,74094.0,1.39,-27.89,-27.99,0,*77
1497064091.36,65453,19.38,74096.8,1.39,-27.89,-28.05,0,*7C
1497064092.63,65454,19.44,74096.8,1.43,-27.83,-27.99,0,*76
1497064093.86,65455,19.38,74092.8,1.39,-27.89,-28.05,0,*7A
1497064095.12,65456,19.44,74096.3,1.39,-27.83,-27.99,0,*79
1497064096.35,65457,19.44,74098.3,1.39,-27.89,-28.05,0,*78
1497064097.6,65458,19.44,74098.0,1.39,-27.83,-27.99,0,*77
1497064098.86,65459,19.38,74096.3,1.43,-27.77,-27.99,0,*70
1497064100.11,65460,19.38,74096.5,1.39,-27.83,-27.99,0,*7C
1497064101.35,65461,19.44,74098.5,1.39,-27.89,-28.05,0,*7D
1497064102.6,65462,19.44,74098.0,1.43,-27.77,-27.99,0,*78
1497064103.86,65463,19.38,74094.5,1.39,-27.83,-28.05,0,*75